Pittsburg, KS

8:32 PM CDT on September 25, 2016 (GMT -0500)
Atkinson Municipal

Weather History for KPTS - February, 2013

Change the Weather History Date:

Tuesday, February 26, 2013

  Actual Average (KJLN) Record (KJLN)
Temperature  
Mean Temperature 35 °F 43 °F  
Max Temperature 35 °F 54 °F 81 °F (1996)
Min Temperature 35 °F 32 °F 8 °F (1960)
Degree Days  
Heating Degree Days 30 22  
Month to date heating degree days 662  
Since 1 July heating degree days 3211  
Cooling Degree Days 0 0  
Month to date cooling degree days 0  
Year to date cooling degree days 0  
Moisture  
Dew Point 34 °F    
Average Humidity 95    
Maximum Humidity 100    
Minimum Humidity 87    
Precipitation  
Precipitation 0.00 in 0.09 in 2.02 in (1984)
Month to date precipitation 2.13  
Year to date precipitation 4.16  
Sea Level Pressure  
Sea Level Pressure 29.62 in    
Wind  
Wind Speed 11 mph (NNW)    
Max Wind Speed 20 mph    
Max Gust Speed 28 mph    
Visibility 7 miles    
Events      
T = Trace of Precipitation, MM = Missing Value Source: NWS Daily Summary

Daily Weather History Graph

Daily Weather History Graph

Search for Another Location

Airport or City:

Trip Planner

Search our weather history database for the weather conditions in past years. The results will help you decide how hot, cold, wet, or windy it might be!

Date:

Astronomy

Feb. 26, 2013 Rise Set
Actual Time 6:53 AM CST 6:10 PM CST
Civil Twilight 6:27 AM CST 6:36 PM CST
Nautical Twilight 5:57 AM CST 7:06 PM CST
Astronomical Twilight 5:27 AM CST 7:37 PM CST
Moon 7:24 PM CST 6:59 AM CST
Length of Visible Light 12h 08m
Length of Day
11h 16m
Full, 99% of the Moon is Illuminated
Feb 26
Full
Mar 4
Last Quarter
Mar 11
New
Mar 19
First Quarter
Mar 27
Full

Hourly Weather History & Observations

Time (CST) Temp. Windchill Dew Point Humidity Pressure Visibility Wind Dir Wind Speed Gust Speed Precip Events Conditions
12:15 AM 35.6 °F 27.5 °F 35.6 °F 100% 29.51 in 3.0 mi NNE 11.5 mph - N/A   Overcast
12:35 AM 35.6 °F 27.5 °F 35.6 °F 100% 29.50 in 2.5 mi NNE 11.5 mph 17.3 mph N/A   Overcast
12:55 AM 35.6 °F 27.5 °F 35.6 °F 100% 29.50 in 2.5 mi NNE 11.5 mph 16.1 mph N/A   Overcast
1:15 AM 35.6 °F 27.1 °F 35.6 °F 100% 29.50 in 3.0 mi NNE 12.7 mph 18.4 mph N/A   Overcast
1:35 AM 35.6 °F 28.0 °F 35.6 °F 100% 29.49 in 2.0 mi North 10.4 mph 16.1 mph N/A   Overcast
1:55 AM 35.6 °F 29.2 °F - N/A% 29.49 in 1.8 mi North 8.1 mph - N/A   Overcast
2:15 AM 35.6 °F 28.6 °F - N/A% 29.49 in 1.2 mi North 9.2 mph - N/A   Overcast
2:35 AM 35.6 °F 27.5 °F - N/A% 29.48 in 1.2 mi North 11.5 mph - N/A   Overcast
2:55 AM 35.6 °F 28.0 °F - N/A% 29.47 in 1.0 mi North 10.4 mph 17.3 mph N/A   Overcast
3:15 AM 35.6 °F 28.0 °F - N/A% 29.46 in 1.8 mi North 10.4 mph - N/A   Overcast
3:35 AM 35.6 °F 28.6 °F - N/A% 29.46 in 1.5 mi North 9.2 mph 16.1 mph N/A   Overcast
3:55 AM 35.6 °F 28.0 °F - N/A% 29.46 in 1.2 mi North 10.4 mph 17.3 mph N/A   Overcast
4:15 AM 35.6 °F 27.5 °F - N/A% 29.45 in 2.5 mi North 11.5 mph - N/A   Overcast
4:35 AM 35.6 °F 27.5 °F - N/A% 29.45 in 4.0 mi North 11.5 mph 16.1 mph N/A   Overcast
4:55 AM 35.6 °F 28.0 °F - N/A% 29.45 in 1.2 mi North 10.4 mph - N/A   Overcast
5:15 AM 35.6 °F 28.0 °F - N/A% 29.46 in 2.5 mi North 10.4 mph 19.6 mph N/A   Overcast
5:35 AM 35.6 °F 27.5 °F - N/A% 29.46 in 3.0 mi North 11.5 mph 17.3 mph N/A   Overcast
5:55 AM 35.6 °F 27.5 °F 35.6 °F 100% 29.46 in 3.0 mi North 11.5 mph 18.4 mph N/A   Overcast
6:15 AM 35.6 °F 27.5 °F 35.6 °F 100% 29.47 in 3.0 mi North 11.5 mph 17.3 mph N/A   Overcast
6:35 AM 35.6 °F 27.1 °F 35.6 °F 100% 29.47 in 5.0 mi North 12.7 mph 21.9 mph N/A   Overcast
6:55 AM 35.6 °F 26.6 °F 35.6 °F 100% 29.48 in 5.0 mi North 13.8 mph 19.6 mph N/A   Overcast
7:15 AM 35.6 °F 26.2 °F 35.6 °F 100% 29.49 in 4.0 mi North 15.0 mph 19.6 mph N/A   Overcast
7:35 AM 35.6 °F 27.1 °F 35.6 °F 100% 29.49 in 7.0 mi North 12.7 mph 21.9 mph N/A   Overcast
7:55 AM 35.6 °F 27.5 °F 35.6 °F 100% 29.50 in 4.0 mi North 11.5 mph 21.9 mph N/A   Overcast
8:15 AM 35.6 °F 26.6 °F 35.6 °F 100% 29.50 in 5.0 mi North 13.8 mph 23.0 mph N/A   Mostly Cloudy
8:35 AM 35.6 °F 26.6 °F 35.6 °F 100% 29.52 in 10.0 mi North 13.8 mph 23.0 mph N/A   Mostly Cloudy
8:55 AM 35.6 °F 26.6 °F 35.6 °F 100% 29.52 in 10.0 mi North 13.8 mph 21.9 mph N/A   Mostly Cloudy
9:15 AM 35.6 °F 27.5 °F 35.6 °F 100% 29.53 in 10.0 mi North 11.5 mph 19.6 mph N/A   Mostly Cloudy
9:35 AM 35.6 °F 25.9 °F 35.4 °F 99% 29.53 in 10.0 mi North 16.1 mph 24.2 mph N/A   Mostly Cloudy
9:55 AM 35.6 °F 27.1 °F 34.9 °F 97% 29.55 in 10.0 mi North 12.7 mph 20.7 mph N/A   Mostly Cloudy
10:15 AM 35.6 °F 24.8 °F 34.3 °F 95% 29.56 in 10.0 mi North 19.6 mph 27.6 mph N/A   Overcast
10:35 AM 35.6 °F 26.6 °F 33.8 °F 93% 29.57 in 10.0 mi North 13.8 mph 20.7 mph N/A   Overcast
10:55 AM 35.6 °F 25.9 °F 33.4 °F 92% 29.59 in 10.0 mi North 16.1 mph 20.7 mph N/A   Mostly Cloudy
11:15 AM 35.6 °F 27.1 °F 33.1 °F 91% 29.59 in 10.0 mi NNW 12.7 mph 23.0 mph N/A   Mostly Cloudy
11:35 AM 35.6 °F 25.5 °F 32.9 °F 90% 29.60 in 10.0 mi NNW 17.3 mph 24.2 mph N/A   Mostly Cloudy
11:55 AM 35.6 °F 26.2 °F 32.5 °F 89% 29.61 in 10.0 mi NNW 15.0 mph 21.9 mph N/A   Mostly Cloudy
12:15 PM 35.6 °F 25.5 °F 32.5 °F 89% 29.61 in 10.0 mi NNW 17.3 mph 21.9 mph N/A   Overcast
12:35 PM 35.6 °F 27.1 °F 32.7 °F 89% 29.62 in 10.0 mi NNW 12.7 mph 23.0 mph N/A   Mostly Cloudy
12:55 PM 35.6 °F 26.6 °F 32.7 °F 89% 29.62 in 10.0 mi NNW 13.8 mph 19.6 mph N/A   Mostly Cloudy
1:15 PM 35.6 °F 27.1 °F 32.5 °F 89% 29.63 in 10.0 mi NNW 12.7 mph 20.7 mph N/A   Overcast
1:35 PM 35.6 °F 26.2 °F 32.7 °F 89% 29.63 in 10.0 mi NNW 15.0 mph 20.7 mph N/A   Overcast
1:55 PM 35.6 °F 28.0 °F 33.1 °F 91% 29.64 in 10.0 mi NNW 10.4 mph 19.6 mph N/A   Mostly Cloudy
2:15 PM 35.6 °F 27.1 °F 33.4 °F 92% 29.65 in 10.0 mi NNW 12.7 mph 17.3 mph N/A   Mostly Cloudy
2:35 PM 35.6 °F 26.6 °F 33.6 °F 92% 29.65 in 10.0 mi NNW 13.8 mph 20.7 mph N/A   Mostly Cloudy
2:55 PM 35.6 °F 27.5 °F 33.3 °F 91% 29.65 in 10.0 mi NNW 11.5 mph 17.3 mph N/A   Mostly Cloudy
3:15 PM 35.6 °F 27.5 °F 33.1 °F 91% 29.67 in 10.0 mi NNW 11.5 mph 20.7 mph N/A   Mostly Cloudy
3:35 PM 35.6 °F 27.1 °F 32.7 °F 89% 29.66 in 10.0 mi NNW 12.7 mph 18.4 mph N/A   Mostly Cloudy
3:55 PM 35.6 °F 28.0 °F 32.2 °F 87% 29.67 in 10.0 mi NNW 10.4 mph 19.6 mph N/A   Overcast
4:15 PM 35.6 °F 28.0 °F 32.0 °F 87% 29.69 in 10.0 mi NNW 10.4 mph 17.3 mph N/A   Overcast
4:35 PM 35.6 °F 28.6 °F 32.4 °F 88% 29.70 in 10.0 mi NNW 9.2 mph - N/A   Mostly Cloudy
4:55 PM 35.6 °F 29.2 °F 32.9 °F 90% 29.72 in 10.0 mi NW 8.1 mph - N/A   Mostly Cloudy
5:15 PM 35.6 °F 29.2 °F 33.3 °F 91% 29.72 in 10.0 mi NW 8.1 mph - N/A   Mostly Cloudy
5:35 PM 35.6 °F 30.7 °F 33.4 °F 92% 29.73 in 10.0 mi NW 5.8 mph - N/A   Scattered Clouds
5:55 PM 35.6 °F 30.7 °F 34.7 °F 97% 29.75 in 7.0 mi NW 5.8 mph - N/A   Scattered Clouds
6:15 PM 35.6 °F 31.7 °F 35.6 °F 100% 29.77 in 7.0 mi WNW 4.6 mph - N/A   Scattered Clouds
6:35 PM 35.6 °F 29.2 °F 35.6 °F 100% 29.77 in 7.0 mi NW 8.1 mph - N/A   Scattered Clouds
6:55 PM 35.6 °F 28.0 °F 35.4 °F 99% 29.78 in 10.0 mi NW 10.4 mph - N/A   Mostly Cloudy
7:15 PM 35.6 °F 28.6 °F 34.9 °F 97% 29.79 in 10.0 mi NW 9.2 mph - N/A   Mostly Cloudy
7:35 PM 35.6 °F 29.9 °F 34.3 °F 95% 29.80 in 10.0 mi NW 6.9 mph - N/A   Mostly Cloudy
7:55 PM 35.6 °F 28.6 °F 34.3 °F 95% 29.80 in 10.0 mi NW 9.2 mph - N/A   Mostly Cloudy
8:15 PM 35.6 °F 28.0 °F 34.5 °F 96% 29.81 in 10.0 mi NNW 10.4 mph 16.1 mph N/A   Overcast
8:35 PM 35.6 °F 27.5 °F 34.3 °F 95% 29.82 in 10.0 mi NNW 11.5 mph - N/A   Overcast
8:55 PM 35.6 °F 28.6 °F 34.3 °F 95% 29.82 in 10.0 mi NNW 9.2 mph - N/A   Mostly Cloudy
9:15 PM 35.6 °F 28.6 °F 34.3 °F 95% 29.84 in 7.0 mi NW 9.2 mph - N/A   Mostly Cloudy
9:35 PM 35.6 °F 29.9 °F 34.0 °F 94% 29.85 in 7.0 mi NW 6.9 mph - N/A   Scattered Clouds
9:55 PM 35.6 °F 30.7 °F 33.8 °F 93% 29.86 in 7.0 mi NW 5.8 mph - N/A   Scattered Clouds
10:15 PM 35.6 °F 30.7 °F 33.8 °F 93% 29.86 in 7.0 mi NW 5.8 mph - N/A   Mostly Cloudy
10:35 PM 35.6 °F 30.7 °F 34.7 °F 97% 29.87 in 7.0 mi WNW 5.8 mph - N/A   Mostly Cloudy
10:55 PM 35.6 °F 31.7 °F 34.9 °F 97% 29.87 in 7.0 mi NW 4.6 mph - N/A   Scattered Clouds
11:15 PM 35.6 °F 28.6 °F 34.5 °F 96% 29.85 in 7.0 mi NNW 9.2 mph - N/A   Scattered Clouds
11:35 PM 35.6 °F 28.6 °F 34.2 °F 94% 29.83 in 7.0 mi NNW 9.2 mph - N/A   Scattered Clouds
11:55 PM 35.6 °F 29.9 °F 34.9 °F 97% 29.84 in 7.0 mi NNW 6.9 mph - N/A   Scattered Clouds